FW6665 Weather Reports


time (UTC)temp
C
wind
direction
speed
KPH
gust
KPH
rain 1hr
cm
rain 24hr
cm
rain mn
cm
humidity
%
barometer
mb
20260508122205 17 100 0.0 4.8 0.00 0.00 0.00 61 1014.3
20260508121704 17 100 1.6 3.2 0.00 0.00 0.00 59 1014.3
20260508120704 17 100 0.0 4.8 0.00 0.00 0.00 57 1014.5
20260508120205 17 100 1.6 4.8 0.00 0.00 0.00 57 1014.3
20260508115205 17 104 0.0 3.2 0.00 0.00 0.00 55 1014.4
20260508114705 17 104 0.0 6.4 0.00 0.00 0.00 56 1014.3
20260508114205 17 104 0.0 6.4 0.00 0.00 0.00 56 1014.3
20260508113205 17 104 1.6 8.0 0.00 0.00 0.00 56 1014.3
20260508112705 17 104 0.0 8.0 0.00 0.00 0.00 59 1014.2
20260508112205 17 104 3.2 4.8 0.00 0.00 0.00 56 1014.1
20260508111204 17 109 1.6 3.2 0.00 0.00 0.00 56 1014.2
20260508110704 17 107 0.0 3.2 0.00 0.00 0.00 58 1014.3
20260508110204 17 107 0.0 6.4 0.00 0.00 0.00 58 1014.4
20260508105205 17 107 1.6 8.0 0.00 0.00 0.00 56 1014.4
20260508104205 17 107 3.2 4.8 0.00 0.00 0.00 55 1014.4
20260508103705 17 100 1.6 4.8 0.00 0.00 0.00 58 1014.3
20260508103205 17 100 0.0 4.8 0.00 0.00 0.00 59 1014.3
20260508102705 17 100 0.0 8.0 0.00 0.00 0.00 60 1014.4
20260508101705 17 103 3.2 8.0 0.00 0.00 0.00 57 1014.4
20260508101204 17 103 4.8 8.0 0.00 0.00 0.00 56 1014.4
20260508100704 18 94 3.2 8.0 0.00 0.00 0.00 57 1014.5
20260508100205 18 116 1.6 8.0 0.00 0.00 0.00 56 1014.4
20260508095705 18 118 3.2 6.4 0.00 0.00 0.00 57 1014.4
20260508095204 18 106 0.0 4.8 0.00 0.00 0.00 59 1014.3
20260508094704 18 106 1.6 4.8 0.00 0.00 0.00 59 1014.4
20260508093704 17 107 1.6 8.0 0.00 0.00 0.00 62 1014.4
20260508093204 17 109 3.2 9.7 0.00 0.00 0.00 61 1014.4
20260508092704 17 114 3.2 9.7 0.00 0.00 0.00 62 1014.4
20260508092210 17 117 3.2 9.7 0.00 0.00 0.00 62 1014.4
20260508091704 17 118 3.2 11.3 0.00 0.00 0.00 63 1014.3
20260508091204 16 133 1.6 11.3 0.00 0.00 0.00 66 1014.5
20260508090705 16 133 1.6 9.7 0.00 0.00 0.00 66 1014.5
20260508090204 16 109 3.2 9.7 0.00 0.00 0.00 68 1014.5
20260508085704 16 114 1.6 9.7 0.00 0.00 0.00 70 1014.4
20260508084705 15 103 1.6 8.0 0.00 0.00 0.00 76 1014.6
20260508084204 14 103 3.2 8.0 0.00 0.00 0.00 77 1014.5
20260508083705 14 109 3.2 6.4 0.00 0.00 0.00 78 1014.6
20260508083203 13 103 0.0 6.4 0.00 0.00 0.00 81 1014.6
20260508082705 13 99 1.6 6.4 0.00 0.00 0.00 81 1014.6
20260508081703 13 93 1.6 4.8 0.00 0.00 0.00 83 1014.5
20260508081204 13 92 1.6 4.8 0.00 0.00 0.00 83 1014.4
20260508080708 12 97 1.6 4.8 0.00 0.00 0.00 82 1014.3
20260508080204 12 96 0.0 3.2 0.00 0.00 0.00 80 1014.3
20260508075204 12 96 0.0 6.4 0.00 0.00 0.00 77 1014.3
20260508074704 11 96 0.0 3.2 0.00 0.00 0.00 77 1014.4
20260508074209 11 94 0.0 3.2 0.00 0.00 0.00 77 1014.4
20260508073704 11 94 0.0 3.2 0.00 0.00 0.00 76 1014.4
20260508073206 11 93 0.0 3.2 0.00 0.00 0.00 74 1014.4
20260508072704 11 93 0.0 3.2 0.00 0.00 0.00 73 1014.4
20260508070204 10 93 0.0 1.6 0.00 0.00 0.00 70 1014.4
20260508065705 10 93 0.0 1.6 0.00 0.00 0.00 71 1014.4
20260508065205 10 93 0.0 1.6 0.00 0.00 0.00 71 1014.4
20260508064704 9 93 0.0 1.6 0.00 0.00 0.00 71 1014.3
20260508064204 9 93 0.0 1.6 0.00 0.00 0.00 72 1014.3
20260508063705 9 93 0.0 1.6 0.00 0.00 0.00 72 1014.2
20260508063204 9 93 0.0 1.6 0.00 0.00 0.00 71 1014.3
20260508062706 9 93 0.0 1.6 0.00 0.00 0.00 71 1014.2
20260508062205 8 94 0.0 1.6 0.00 0.00 0.00 71 1014.2
20260508061704 8 94 0.0 1.6 0.00 0.00 0.00 71 1014.2
20260508060705 8 94 0.0 1.6 0.00 0.00 0.00 72 1014.1
20260508060205 8 94 0.0 1.6 0.00 0.00 0.00 72 1014.2
20260508055704 8 94 0.0 1.6 0.00 0.00 0.00 73 1014.1
20260508055205 8 94 0.0 1.6 0.00 0.00 0.00 73 1014.1
20260508054704 8 94 0.0 1.6 0.00 0.00 0.00 74 1014.1
20260508054207 7 94 0.0 1.6 0.00 0.00 0.00 74 1014.0
20260508053705 7 94 0.0 1.6 0.00 0.00 0.00 74 1013.9
20260508053205 7 94 0.0 1.6 0.00 0.00 0.00 75 1014.0
20260508052704 7 94 0.0 0.0 0.00 0.00 0.00 75 1013.9
20260508052204 7 94 0.0 0.0 0.00 0.00 0.00 74 1013.7
20260508051206 7 94 0.0 0.0 0.00 0.00 0.00 74 1013.8
20260508050704 7 94 0.0 0.0 0.00 0.00 0.00 74 1013.8
20260508050204 7 94 0.0 0.0 0.00 0.00 0.00 75 1013.7
20260508045704 6 94 0.0 0.0 0.00 0.00 0.00 75 1013.7
20260508045204 6 94 0.0 0.0 0.00 0.00 0.00 76 1013.7
20260508044204 6 94 0.0 0.0 0.00 0.00 0.00 78 1013.7
20260508043704 6 94 0.0 0.0 0.00 0.00 0.00 78 1013.6
20260508043204 6 94 0.0 0.0 0.00 0.00 0.00 78 1013.7
20260508042704 6 94 0.0 0.0 0.00 0.00 0.00 78 1013.7
20260508042231 6 94 0.0 0.0 0.00 0.00 0.00 79 1013.6
20260508041705 6 94 0.0 0.0 0.00 0.00 0.00 79 1013.6
20260508041208 6 94 0.0 0.0 0.00 0.00 0.00 79 1013.7
20260508040704 6 94 0.0 0.0 0.00 0.00 0.00 78 1013.7
20260508040205 6 94 0.0 0.0 0.00 0.00 0.00 79 1013.7
20260508035205 6 94 0.0 0.0 0.00 0.00 0.00 80 1013.6
20260508034705 6 94 0.0 0.0 0.00 0.00 0.00 80 1013.6
20260508034203 6 94 0.0 0.0 0.00 0.00 0.00 80 1013.6
20260508033704 6 94 0.0 0.0 0.00 0.00 0.00 80 1013.6
20260508033203 6 94 0.0 0.0 0.00 0.00 0.00 80 1013.6
20260508031704 6 94 0.0 0.0 0.00 0.00 0.00 81 1013.7
20260508031205 6 94 0.0 0.0 0.00 0.00 0.00 81 1013.5
20260508030704 6 94 0.0 0.0 0.00 0.00 0.00 81 1013.7
20260508025705 6 94 0.0 0.0 0.00 0.00 0.00 82 1013.6
20260508025205 6 94 0.0 0.0 0.00 0.00 0.00 82 1013.6
20260508024204 6 94 0.0 0.0 0.00 0.00 0.00 82 1013.6
20260508023705 6 94 0.0 0.0 0.00 0.00 0.00 82 1013.6
20260508023205 6 94 0.0 0.0 0.00 0.00 0.00 83 1013.6
20260508022704 6 94 0.0 0.0 0.00 0.00 0.00 83 1013.6
20260508022204 6 94 0.0 0.0 0.00 0.00 0.00 83 1013.5
20260508021706 6 94 0.0 0.0 0.00 0.00 0.00 83 1013.5
20260508021209 6 94 0.0 0.0 0.00 0.00 0.00 83 1013.5
20260508020704 6 94 0.0 0.0 0.00 0.00 0.00 83 1013.6
20260508015706 6 94 0.0 0.0 0.00 0.00 0.00 84 1013.6
20260508015208 6 94 0.0 0.0 0.00 0.00 0.00 84 1013.7
20260508014704 6 94 0.0 0.0 0.00 0.00 0.00 84 1013.6
20260508013704 6 94 0.0 0.0 0.00 0.00 0.00 84 1013.7
20260508012705 6 94 0.0 0.0 0.00 0.00 0.00 84 1013.7
20260508012205 6 94 0.0 0.0 0.00 0.00 0.00 84 1013.7
20260508011705 7 94 0.0 0.0 0.00 0.00 0.00 84 1013.7
20260508011204 7 94 0.0 0.0 0.00 0.00 0.00 84 1013.7
20260508010704 7 94 0.0 0.0 0.00 0.00 0.00 84 1013.7
20260508010204 7 94 0.0 0.0 0.00 0.00 0.00 84 1013.8
20260508005205 7 94 0.0 0.0 0.00 0.00 0.00 84 1013.7
20260508004704 7 94 0.0 0.0 0.00 0.00 0.00 84 1013.8
20260508004205 7 94 0.0 0.0 0.00 0.00 0.00 84 1013.7
20260508003706 7 94 0.0 0.0 0.00 0.00 0.00 84 1013.9
20260508003205 7 94 0.0 0.0 0.00 0.00 0.00 84 1013.8
20260508002205 8 94 0.0 0.0 0.00 0.00 0.00 84 1013.8
20260508001706 8 94 0.0 0.0 0.00 0.00 0.00 84 1013.9
20260508000704 8 94 0.0 0.0 0.00 0.00 0.00 84 1013.8
20260508000205 8 94 0.0 0.0 0.00 0.00 0.00 84 1013.8
20260507235205 8 94 0.0 0.0 0.00 0.00 0.00 84 1013.8
20260507234705 8 94 0.0 0.0 0.00 0.00 0.00 84 1013.8
20260507234207 8 94 0.0 0.0 0.00 0.00 0.00 83 1013.9
20260507233708 9 94 0.0 0.0 0.00 0.00 0.00 83 1013.9
20260507232704 9 94 0.0 0.0 0.00 0.00 0.00 83 1014.0
20260507232205 9 94 0.0 0.0 0.00 0.00 0.00 83 1014.1
20260507231704 10 94 0.0 0.0 0.00 0.00 0.00 82 1014.2
20260507231204 10 94 0.0 0.0 0.00 0.00 0.00 83 1014.1
20260507230705 10 94 0.0 0.0 0.00 0.00 0.00 83 1014.2
20260507225704 10 94 0.0 0.0 0.00 0.00 0.00 83 1014.2
20260507224705 10 94 0.0 1.6 0.00 0.00 0.00 82 1014.3
20260507224204 10 94 0.0 1.6 0.00 0.00 0.00 82 1014.3
20260507223204 10 94 0.0 1.6 0.00 0.00 0.00 82 1014.3
20260507222704 10 94 0.0 0.0 0.00 0.00 0.00 82 1014.3
20260507222205 10 94 0.0 0.0 0.00 0.00 0.00 82 1014.3
20260507221704 10 94 0.0 0.0 0.00 0.00 0.00 82 1014.2
20260507221205 10 94 0.0 0.0 0.00 0.00 0.00 82 1014.3
20260507220705 10 94 0.0 1.6 0.00 0.00 0.00 82 1014.3
20260507220204 11 94 0.0 1.6 0.00 0.00 0.00 82 1014.3
20260507215204 11 94 0.0 1.6 0.00 0.00 0.00 82 1014.3
20260507214708 11 94 0.0 3.2 0.00 0.00 0.00 82 1014.2
20260507214203 11 94 0.0 3.2 0.00 0.00 0.00 82 1014.2
20260507213705 11 94 0.0 3.2 0.00 0.00 0.00 81 1014.3
20260507213204 11 94 0.0 3.2 0.00 0.00 0.00 81 1014.4
20260507212706 11 94 0.0 3.2 0.00 0.00 0.00 82 1014.3
20260507212204 11 94 0.0 1.6 0.00 0.00 0.00 81 1014.3
20260507211706 11 94 0.0 1.6 0.00 0.00 0.00 81 1014.2
20260507211204 11 94 0.0 1.6 0.00 0.00 0.00 81 1014.2
20260507210704 11 94 0.0 1.6 0.00 0.00 0.00 81 1014.2
20260507210204 11 94 0.0 1.6 0.00 0.00 0.00 80 1014.3
20260507205704 11 94 0.0 1.6 0.00 0.00 0.00 80 1014.1
20260507205204 11 94 0.0 1.6 0.00 0.00 0.00 79 1014.1
20260507204704 11 94 0.0 1.6 0.00 0.00 0.00 79 1014.0
20260507204204 11 94 0.0 1.6 0.00 0.00 0.00 79 1014.0
20260507203706 11 94 0.0 1.6 0.00 0.00 0.00 79 1014.0
20260507203204 11 94 0.0 1.6 0.00 0.00 0.00 78 1013.9
20260507202709 11 94 0.0 1.6 0.00 0.00 0.00 78 1013.9
20260507202204 11 94 0.0 1.6 0.00 0.00 0.00 78 1013.8
20260507201703 11 94 0.0 3.2 0.00 0.00 0.00 78 1013.8
20260507201205 11 94 0.0 3.2 0.00 0.00 0.00 78 1013.8
20260507200204 11 94 0.0 3.2 0.00 0.00 0.00 77 1013.7
20260507195704 11 94 0.0 3.2 0.00 0.00 0.00 77 1013.6
20260507194704 12 94 0.0 1.6 0.00 0.00 0.00 76 1013.5
20260507194203 12 94 0.0 3.2 0.00 0.00 0.00 76 1013.5
20260507193705 12 94 0.0 4.8 0.00 0.00 0.00 75 1013.5
20260507193204 12 94 0.0 4.8 0.00 0.00 0.00 75 1013.3
20260507192703 12 94 0.0 4.8 0.00 0.00 0.00 75 1013.5
20260507192205 12 94 1.6 4.8 0.00 0.00 0.00 75 1013.4
20260507191204 12 94 0.0 4.8 0.00 0.00 0.00 74 1013.3
20260507190705 12 94 1.6 3.2 0.00 0.00 0.00 74 1013.3
20260507185705 12 100 0.0 6.4 0.00 0.00 0.00 74 1013.4
20260507184704 12 99 1.6 8.0 0.00 0.00 0.00 74 1013.4
20260507184204 12 99 1.6 8.0 0.00 0.00 0.00 74 1013.3
20260507183704 12 96 1.6 6.4 0.00 0.00 0.00 73 1013.3
20260507183206 12 97 0.0 4.8 0.00 0.00 0.00 73 1013.3
20260507182704 13 99 0.0 4.8 0.00 0.00 0.00 73 1013.4
20260507182204 13 99 0.0 4.8 0.00 0.00 0.00 73 1013.3
20260507181705 13 99 0.0 6.4 0.00 0.00 0.00 72 1013.3
20260507181205 13 90 0.0 6.4 0.00 0.00 0.00 72 1013.3
20260507180704 13 92 1.6 8.0 0.00 0.00 0.00 72 1013.3
20260507180204 13 97 1.6 8.0 0.00 0.00 0.00 71 1013.3
20260507175704 13 97 3.2 8.0 0.00 0.00 0.00 71 1013.2
20260507175204 13 103 3.2 11.3 0.00 0.00 0.00 71 1013.2
20260507174714 13 100 1.6 11.3 0.00 0.00 0.00 71 1013.2
20260507173704 13 110 4.8 9.7 0.00 0.00 0.00 69 1013.0
20260507172705 13 93 1.6 8.0 0.00 0.00 0.00 69 1013.0
20260507172203 13 75 3.2 9.7 0.00 0.00 0.00 68 1013.1
20260507171205 14 103 3.2 9.7 0.00 0.00 0.00 67 1013.0
20260507170705 14 97 3.2 9.7 0.00 0.00 0.00 67 1013.0
20260507170204 14 97 3.2 8.0 0.00 0.00 0.00 68 1013.1
20260507165705 14 110 1.6 11.3 0.00 0.00 0.00 69 1013.0
20260507165203 13 106 3.2 11.3 0.00 0.00 0.00 68 1013.0
20260507164705 13 107 4.8 11.3 0.00 0.00 0.00 67 1013.0
20260507164205 13 73 3.2 8.0 0.00 0.00 0.00 69 1013.0
20260507163205 13 123 1.6 8.0 0.00 0.00 0.00 67 1012.9
20260507162704 13 120 1.6 8.0 0.00 0.00 0.00 67 1013.1
20260507162204 13 104 1.6 8.0 0.00 0.00 0.00 66 1013.1
20260507161706 14 90 1.6 8.0 0.00 0.00 0.00 67 1013.1
20260507161205 14 90 1.6 8.0 0.00 0.00 0.00 66 1013.1
20260507160205 14 94 3.2 8.0 0.00 0.00 0.00 64 1013.1
20260507155704 15 107 1.6 8.0 0.00 0.00 0.00 64 1013.1
20260507155204 15 92 1.6 6.4 0.00 0.00 0.00 65 1013.1
20260507154705 15 92 1.6 4.8 0.00 0.00 0.00 65 1013.1
20260507154204 15 104 1.6 4.8 0.00 0.00 0.00 64 1013.1
20260507153204 15 103 1.6 9.7 0.00 0.00 0.00 63 1013.1
20260507152704 15 104 3.2 9.7 0.00 0.00 0.00 62 1013.2
20260507152204 15 107 3.2 9.7 0.00 0.00 0.00 63 1013.2
20260507151704 15 121 0.0 6.4 0.00 0.00 0.00 63 1013.1
20260507151208 15 121 1.6 8.0 0.00 0.00 0.00 62 1013.2
20260507150706 15 121 3.2 8.0 0.00 0.00 0.00 61 1013.1
20260507145704 15 166 1.6 4.8 0.00 0.00 0.00 64 1013.1
20260507145205 15 165 1.6 4.8 0.00 0.00 0.00 67 1013.1
20260507144209 14 133 1.6 11.3 0.00 0.00 0.00 66 1013.2
20260507143704 14 134 1.6 11.3 0.00 0.00 0.00 66 1013.1
20260507143209 14 137 0.0 11.3 0.00 0.00 0.00 65 1013.1
20260507142704 14 104 1.6 8.0 0.00 0.00 0.00 63 1013.2
20260507142204 14 89 0.0 6.4 0.00 0.00 0.00 63 1013.3
20260507141205 14 93 1.6 8.0 0.00 0.00 0.00 63 1013.3
20260507140705 14 94 1.6 8.0 0.00 0.00 0.00 63 1013.4
20260507134204 14 92 3.2 8.0 0.00 0.00 0.00 63 1013.5
20260507133704 14 90 1.6 8.0 0.00 0.00 0.00 65 1013.5
20260507133205 13 79 0.0 8.0 0.00 0.00 0.00 67 1013.5
20260507132705 13 79 0.0 8.0 0.00 0.00 0.00 67 1013.5
20260507132205 13 79 3.2 8.0 0.00 0.00 0.00 64 1013.5
20260507131705 13 78 1.6 4.8 0.00 0.00 0.00 67 1013.6
20260507131204 13 103 0.0 4.8 0.00 0.00 0.00 67 1013.6
20260507130704 13 103 0.0 4.8 0.00 0.00 0.00 67 1013.6
20260507130205 13 103 0.0 3.2 0.00 0.00 0.00 67 1013.6
20260507125704 13 103 0.0 4.8 0.00 0.00 0.00 67 1013.6
20260507125204 13 103 0.0 6.4 0.00 0.00 0.00 66 1013.6
20260507124204 13 100 0.0 6.4 0.00 0.00 0.00 66 1013.7
20260507123708 13 97 0.0 3.2 0.00 0.00 0.00 66 1013.7
20260507123204 14 97 0.0 6.4 0.00 0.00 0.00 66 1013.6
20260507122706 14 97 0.0 6.4 0.00 0.00 0.00 65 1013.7